Tracking 32110 objects as of 7-Nov-2025
HD Live streaming from Space Station
objects crossing your sky now

STARLINK-32706

Track STARLINK-32706 now!
10-day predictions
STARLINK-32706 is classified as:


NORAD ID: 62308
Int'l Code: 2024-239H
Perigee: 481.6 km
Apogee: 483.0 km
Inclination: 53.2 °
Period: 94.1 minutes
Semi major axis: 6853 km
RCS: Unknown
Launch date: December 13, 2024
Source: United States (US)
Launch site: AIR FORCE WESTERN TEST RANGE (AFWTR)
Your satellite tracking list
Your tracking list is empty




NASA's NSSDC Master Catalog

Two Line Element Set (TLE):
1 62308U 24239H   25310.65919291  .00047966  00000-0  16201-2 0  9996
2 62308  53.1614  45.6502 0001030  81.5853 278.5264 15.30221548 50546
Source of the keplerian elements: AFSPC